Regional Weather Roundup
Issued by NWS

Home | Current Version | Previous Version | Graphics & Text | Print | Product List | Glossary On
Versions: 1 2 3 4 5 6 7 8 9 10 11 12 13 14 15 16 17 18 19 20 21 22 23 24 25 26 27 28 29 30 31 32 33 34 35 36 37 38 39 40 41 42 43 44 45 46 47 48 49 50
000
ASUS43 KIND 240609
RWRIN

WEATHER ROUNDUP FOR INDIANA
NATIONAL WEATHER SERVICE INDIANAPOLIS IN
200 AM EDT TUE MAY 24 2016

NOTE: "FAIR" INDICATES FEW OR NO CLOUDS BELOW 12,000 FEET WITH NO
SIGNIFICANT WEATHER AND/OR OBSTRUCTIONS TO VISIBILITY.

* - STATION DOES NOT REPORT WEATHER SUCH AS PRECIPITATION OR FOG.

+ - STATION NOT QUALITY CONTROLLED BY THE NATIONAL WEATHER SERVICE.
    USE DATA WITH CAUTION...ESPECIALLY DEWPOINT AND RELATIVE
    HUMIDITY OBSERVATIONS.

INZ001>003-010>013-019-020-240700-
NORTHWEST INDIANA

CITY           SKY/WX    TMP DP  RH WIND       PRES   REMARKS
GARY /AIRPORT/ CLEAR     65  47  52 S5        29.96S
KNOX *+        CLEAR     59  28  31 S8        29.98S
LA PORTE +     PTCLDY    62  40  45 SE5       29.98S
6HR MIN TEMP:  62; 6HR MAX TEMP:  79;

MICHIGAN CITY+ CLEAR     64  36  34 S8        29.97F
MONTICELLO +   CLEAR     63  35  35 SE5       29.98S
6HR MIN TEMP:  62; 6HR MAX TEMP:  77;

RENSSELAER +   CLEAR     63  36  36 S9        29.98S
VALPARAISO     PTCLDY    61  37  41 S3        29.98S
6HR MIN TEMP:  61; 6HR MAX TEMP:  78;


$$

LMZ046-743>745-240700-
SOUTHERN LAKE MICHIGAN

STATION/POSITION TIME  TEMP    WIND        PRES    WAVE
                       AIR SEA DIR/SP/G            HT
                 (UTC) (F)     (DEG/KT/KT) (MB)    (FT)
BURNS HARBOR     0500   70     160/  9/ 19 1014.9R
MICHIGAN CITY    0500   69     140/ 11/ 13   N/A
5NW MICH CITY    0600   63 57  190/  8/ 10   N/A     1

$$

INZ004-005-014>016-021>024-240700-
NORTH CENTRAL INDIANA

CITY           SKY/WX    TMP DP  RH WIND       PRES   REMARKS
GOSHEN         CLEAR     49  39  68 S3        29.99S
6HR MIN TEMP:  48; 6HR MAX TEMP:  74;

LOGANSPORT +   CLEAR     57  39  51 S6        30.00F
PERU/GRISSOM   CLEAR     57  40  52 S6        29.99S
6HR MIN TEMP:  57; 6HR MAX TEMP:  74;

ROCHESTER +    PTCLDY    64  43  45 SE3       30.00S
SOUTH BEND     PTCLDY    57  35  43 CALM      29.99F
6HR MIN TEMP:  56; 6HR MAX TEMP:  75;

WARSAW +       CLEAR     52  37  58 CALM      30.00S

$$

INZ006>009-017-018-025>027-240700-
NORTHEAST INDIANA

CITY           SKY/WX    TMP DP  RH WIND       PRES   REMARKS
ANGOLA *+      CLEAR     48  46  93 CALM      30.01S
AUBURN +       CLEAR     50  41  71 CALM      30.02S
FORT WAYNE     PTCLDY    56  44  64 CALM      30.02S
6HR MIN TEMP:  53; 6HR MAX TEMP:  75;

HUNTINGTON +   CLEAR     51  47  86 S3        30.01S

$$

INZ028-029-035-036-043>045-051>053-240700-
WEST CENTRAL INDIANA

CITY           SKY/WX    TMP DP  RH WIND       PRES   REMARKS
CRAWFORDSVL +  CLEAR     54  45  71 SE6       30.00S
6HR MIN TEMP:  54; 6HR MAX TEMP:  74;

GREENCASTLE +  CLEAR     55  46  71 CALM      30.01F
LAFAYETTE      CLEAR     54  44  69 CALM      29.99R
6HR MIN TEMP:  54; 6HR MAX TEMP:  76;

TERRE HAUTE    PTCLDY    58  47  66 E5        29.99F
6HR MIN TEMP:  57; 6HR MAX TEMP:  75;


$$

INZ030>032-037>040-046>048-054>057-064-065-240700-
CENTRAL INDIANA

CITY           SKY/WX    TMP DP  RH WIND       PRES   REMARKS
CP ATTERBURY + CLEAR     48  46  93 CALM      30.02F
FISHERS *+     CLEAR     52  46  82 CALM      30.01
FRANKFORT +      N/A     58  32  38 CALM      30.02S
6HR MIN TEMP:  56; 6HR MAX TEMP:  77;

GREENWOOD *+   CLEAR     61  41  48 CALM      30.02F
INDIANAPOLIS   PTCLDY    62  41  46 SE9       30.00S
6HR MIN TEMP:  62; 6HR MAX TEMP:  72;

-EAGLE CREEK   CLEAR     56  46  69 CALM      30.01S
6HR MIN TEMP:  55; 6HR MAX TEMP:  76;

KOKOMO *+      CLEAR     55  39  54 S8        30.01S
6HR MIN TEMP:  54; 6HR MAX TEMP:  72;

MARION +       CLEAR     55  44  67 CALM      30.02S
SHELBYVILLE    CLEAR     58  48  69 SE5       30.02S
6HR MIN TEMP:  56; 6HR MAX TEMP:  76;

ZIONSVILLE +   CLEAR     53  47  80 CALM      30.02S
6HR MIN TEMP:  52; 6HR MAX TEMP:  73;


$$

INZ033-034-041-042-049-050-058-059-240700-
EAST CENTRAL INDIANA

CITY           SKY/WX    TMP DP  RH WIND       PRES   REMARKS
MUNCIE         CLEAR     63  45  51 S7        30.02S
6HR MIN TEMP:  62; 6HR MAX TEMP:  76;


$$

INZ060-061-067>069-081>083-085>088-240700-
SOUTHWEST INDIANA

CITY           SKY/WX    TMP DP  RH WIND       PRES   REMARKS
EVANSVILLE     CLOUDY    60  49  66 CALM      30.00S
6HR MIN TEMP:  60; 6HR MAX TEMP:  77;

HUNTINGBURG *+ CLOUDY    61  45  55 SE7       30.00F
6HR MIN TEMP:  59; 6HR MAX TEMP:  73;

WASHINGTON +   HAZE      57  52  85 CALM      29.99F VSB 3/4
6HR MIN TEMP:  56; 6HR MAX TEMP:  75;


$$

INZ062-063-066-070>080-084-089>092-240700-
SOUTH CENTRAL AND SOUTHEAST INDIANA

CITY           SKY/WX    TMP DP  RH WIND       PRES   REMARKS
BEDFORD +      CLEAR     59  54  82 SE5       30.01
BLOOMINGTON    CLEAR     52  47  83 CALM      30.01F
6HR MIN TEMP:  52; 6HR MAX TEMP:  75;

MADISON *+     CLEAR     54  52  94 CALM      30.05S
NORTH VERNON + CLEAR    N/A N/A N/A CALM      30.04S
SEYMOUR +      CLEAR     55  54  94 E3        30.02F

$$





USA.gov is the U.S. government's official web portal to all federal, state and local government web resources and services.